Precipitable_Water
0.44 0.44 0.47 0.50 0.52 0.53 0.54 0.54 0.56 0.55 0.56 0.56 0.56 0.55 0.54 0.51 0.50 0.51 0.51 0.49 0.46 0.47
0.47 0.46 0.46 0.47 0.49 0.51 0.56 0.57 0.55 0.56 0.56 0.57 0.58 0.59 0.58 0.56 0.53 0.53 0.53 0.53 0.52 0.50
0.44 0.46 0.46 0.45 0.43 0.44 0.46 0.49 0.50 0.51 0.51 0.52 0.54 0.57 0.59 0.59 0.60 0.58 0.58 0.59 0.58 0.56
0.41 0.41 0.40 0.39 0.39 0.41 0.42 0.43 0.43 0.45 0.46 0.46 0.47 0.50 0.52 0.53 0.55 0.56 0.57 0.59 0.59 0.60
0.41 0.41 0.39 0.39 0.38 0.39 0.39 0.39 0.40 0.43 0.45 0.45 0.45 0.46 0.47 0.48 0.51 0.52 0.53 0.56 0.58 0.60
0.41 0.40 0.39 0.41 0.42 0.42 0.41 0.38 0.37 0.39 0.40 0.42 0.44 0.46 0.47 0.49 0.51 0.54 0.58 0.61 0.62 0.62
0.43 0.45 0.47 0.49 0.49 0.50 0.52 0.49 0.47 0.45 0.41 0.41 0.41 0.42 0.42 0.43 0.44 0.47 0.50 0.54 0.57 0.59
0.49 0.53 0.53 0.52 0.53 0.53 0.52 0.48 0.47 0.49 0.49 0.47 0.46 0.44 0.43 0.44 0.44 0.45 0.47 0.51 0.54 0.56
0.51 0.50 0.50 0.50 0.49 0.47 0.45 0.43 0.42 0.44 0.47 0.50 0.52 0.53 0.51 0.50 0.47 0.47 0.47 0.47 0.49 0.53
0.50 0.48 0.47 0.45 0.44 0.42 0.40 0.40 0.40 0.42 0.44 0.45 0.46 0.50 0.50 0.50 0.51 0.51 0.51 0.52 0.52 0.52
0.46 0.45 0.45 0.44 0.43 0.44 0.44 0.43 0.44 0.45 0.45 0.45 0.45 0.46 0.46 0.47 0.48 0.49 0.51 0.53 0.55 0.55
0.47 0.45 0.45 0.44 0.43 0.44 0.44 0.44 0.44 0.44 0.44 0.44 0.45 0.47 0.48 0.47 0.46 0.45 0.46 0.49 0.51 0.52
0.48 0.47 0.46 0.46 0.45 0.46 0.47 0.45 0.45 0.44 0.44 0.45 0.43 0.44 0.44 0.45 0.45 0.45 0.47 0.49 0.50 0.51
0.46 0.46 0.47 0.47 0.49 0.51 0.50 0.50 0.48 0.47 0.47 0.47 0.47 0.47 0.48 0.48 0.46 0.45 0.45 0.46 0.47 0.50
Wind_Speed
29 28 26 26 28 28 27 26 25 24 24 24 24 23 22 21 21 21 20 19 18 19
27 24 26 28 28 28 28 26 25 25 25 25 24 23 22 22 22 22 21 21 20 20
25 26 27 28 29 29 28 27 26 26 26 25 25 24 24 24 24 23 23 22 22 22
27 28 29 28 28 28 28 28 27 27 27 26 26 26 26 27 26 26 25 25 24 24
29 29 29 29 29 29 30 29 28 28 27 27 28 28 28 29 28 28 28 28 27 27
30 30 31 31 31 32 32 31 30 29 29 29 29 29 30 30 30 30 30 30 29 29
30 31 31 32 32 32 32 32 31 30 30 30 30 30 30 30 31 31 31 30 30 30
32 33 33 33 33 33 33 32 32 31 31 31 30 30 30 30 30 31 30 30 30 31
35 35 35 35 35 35 34 33 32 32 32 32 31 31 31 32 31 32 31 31 31 31
36 36 36 36 35 34 34 33 33 33 33 33 32 32 32 33 32 32 32 32 32 32
38 38 37 37 36 36 36 35 35 35 35 34 34 34 34 34 33 33 33 33 33 33
40 40 39 39 39 39 38 38 38 38 37 37 36 36 35 35 34 34 34 33 33 33
42 41 41 41 40 40 40 40 39 39 39 39 39 38 37 37 36 36 35 34 34 34
42 42 42 42 41 41 40 40 40 40 39 39 39 39 38 37 37 36 36 35 34 34
Wind_Direction
297 298 299 303 307 312 311 308 303 296 295 295 293 292 292 291 293 295 292 291 291 289
296 295 298 302 305 307 308 306 302 297 295 293 291 290 289 288 290 291 289 287 288 288
296 296 299 301 303 303 304 304 301 297 294 291 289 289 288 287 287 287 288 286 285 284
298 298 299 300 302 303 303 302 299 296 293 290 288 287 286 285 284 284 284 284 283 282
298 299 299 299 300 300 301 300 298 295 292 290 288 287 285 284 283 282 282 281 280 280
297 298 298 298 299 298 299 298 296 294 291 289 287 286 285 284 283 282 280 279 278 277
297 298 298 298 298 298 298 297 296 293 291 289 288 286 285 284 283 282 280 278 276 275
296 297 298 297 297 297 296 296 294 293 291 290 288 286 285 285 284 282 280 278 276 275
295 296 296 296 296 295 295 294 293 291 290 290 288 287 286 285 283 282 280 279 277 276
294 295 295 295 294 294 293 292 292 291 290 289 288 288 287 286 284 282 280 279 278 276
293 293 293 293 292 292 292 291 289 289 288 288 287 287 286 285 284 282 280 279 278 277
291 291 291 290 289 289 289 289 288 286 285 285 285 285 284 284 282 281 280 279 278 277
289 288 288 288 288 287 286 286 286 284 284 283 283 283 282 281 279 279 278 278 277 276
288 287 287 287 287 286 285 285 284 284 284 284 283 282 281 280 278 277 277 277 277 277